Temp
27 25 24 24 25 27 28 28 28 28 27 26 24 24 25 25 26 29 31 31 31 29 28 30 29 28 29 30 30 30 30 29 29 29 28 28 28 28 28 27 27 27 26 27 26 26 25 25 24 23 22 21 21 20 19 19 19 19 19 18 18 18 18 18 18 18 19 19 19 20 20 20 20 20 20 20 19 19 18 18 18 17 17 17 17 17
27 25 25 26 26 27 28 28 28 29 28 26 24 24 26 26 27 31 31 31 32 29 27 29 29 28 30 30 31 31 30 29 29 29 29 29 28 28 28 27 27 27 27 27 26 26 26 25 24 23 22 21 21 20 19 19 19 19 19 19 18 18 18 18 18 18 19 19 19 19 20 20 20 20 20 20 19 18 18 18 18 17 17 17 17 17
24 25 26 28 28 27 27 27 28 29 29 26 26 25 25 26 29 30 31 31 32 29 27 29 28 28 30 31 31 31 30 30 30 30 29 29 28 28 28 28 27 27 27 26 26 26 26 25 24 23 22 21 21 20 19 19 19 19 19 19 18 18 18 18 18 18 18 19 19 18 18 19 19 19 19 19 18 18 18 18 18 18 18 17 17 17
22 26 29 29 28 28 27 28 29 28 27 26 26 24 24 27 27 26 29 32 31 30 29 30 29 28 30 31 31 31 31 31 30 30 30 29 29 28 28 28 28 27 27 26 26 27 26 25 24 23 22 22 21 20 20 19 19 19 19 19 18 18 18 18 18 18 18 18 18 18 18 18 18 18 18 18 19 18 18 18 18 18 18 18 17 18
25 28 30 29 29 29 28 28 28 26 25 26 27 25 25 28 28 26 29 31 31 30 30 29 26 26 29 29 30 31 31 31 30 30 29 29 30 29 28 28 28 27 27 27 26 26 26 25 24 23 22 22 21 21 20 20 19 19 19 19 18 18 18 18 18 17 18 18 17 17 17 18 18 18 18 18 19 19 19 19 19 18 18 18 18 18
26 28 30 29 28 28 27 25 26 26 25 25 27 27 27 28 29 29 30 29 26 25 29 29 22 22 27 28 29 30 30 30 30 29 29 29 29 29 28 28 28 28 27 27 27 26 26 25 24 23 22 22 21 21 21 20 20 20 19 19 19 18 18 18 18 17 17 17 17 17 17 18 18 18 19 19 19 19 19 19 18 18 18 18 18 17
26 28 30 28 26 27 27 26 27 28 25 23 27 29 29 29 28 29 29 27 22 22 28 28 23 21 24 27 29 30 29 30 29 29 29 30 29 28 28 28 28 28 27 27 27 26 26 25 24 23 23 22 22 22 21 20 20 20 19 19 19 18 18 18 18 17 17 17 18 18 18 18 18 19 19 19 19 18 18 18 18 18 18 18 18 18
26 29 29 27 26 28 28 27 29 29 24 24 28 30 29 29 28 28 27 25 24 24 26 27 25 22 21 25 29 29 28 29 30 29 29 29 29 29 28 28 29 28 28 27 27 26 26 25 24 23 23 23 23 22 21 21 20 20 20 19 19 19 18 18 18 17 17 17 18 18 18 18 19 19 19 19 19 18 18 18 18 17 17 18 18 18
30 30 28 28 28 28 29 29 30 29 26 27 30 30 28 26 26 27 26 24 24 24 22 24 25 22 21 25 30 29 27 28 29 30 30 29 29 29 28 28 29 29 29 28 27 27 26 25 25 24 23 23 23 22 22 21 20 20 20 19 19 19 18 18 18 17 17 17 18 18 18 18 18 19 19 19 19 18 18 18 17 17 17 18 18 18
32 31 29 29 29 29 30 31 31 29 28 30 31 31 30 25 24 27 26 23 23 22 21 23 24 22 21 24 27 28 26 28 30 30 30 30 30 30 29 29 30 29 29 29 28 27 26 25 25 24 24 24 23 22 22 21 21 20 20 20 19 19 18 18 18 17 18 17 17 18 18 18 18 19 19 19 19 19 18 18 18 17 17 17 17 17
33 33 31 31 31 31 31 32 32 30 30 31 31 30 29 25 23 25 25 23 21 21 21 23 24 23 21 23 25 27 27 29 30 30 30 31 30 30 30 29 30 29 29 29 28 27 26 26 25 24 24 24 23 23 22 21 21 20 20 20 19 19 19 18 18 17 18 17 17 17 18 18 18 19 19 19 19 19 19 18 18 18 17 17 17 17
33 32 32 33 32 32 32 32 32 31 31 31 28 25 24 23 22 23 23 23 21 21 22 24 25 23 21 22 26 29 30 31 31 31 31 31 31 31 30 30 30 30 30 29 28 28 27 26 25 25 24 24 23 23 22 22 21 21 20 20 19 19 19 18 18 18 18 17 17 18 18 18 18 19 19 19 19 19 19 19 18 18 17 17 17 17
31 32 33 33 33 33 32 30 30 31 31 31 27 23 22 22 22 22 21 21 21 21 24 25 24 22 22 25 29 31 32 32 32 32 32 32 32 31 31 31 31 31 30 29 28 27 26 25 25 25 24 24 23 23 23 22 22 22 21 20 20 19 19 19 18 18 18 18 18 18 18 18 18 18 19 19 19 19 19 19 18 18 18 17 17 17
27 31 33 32 31 33 32 27 25 27 30 29 26 23 22 22 21 21 21 22 21 21 24 26 24 22 23 28 32 33 32 33 33 33 32 32 32 31 32 32 31 31 30 29 27 26 26 25 25 25 24 24 23 23 23 22 22 22 21 20 20 19 19 19 18 18 18 18 18 18 18 18 18 18 18 18 18 19 19 18 18 18 18 17 17 17
23 25 30 32 31 32 33 28 25 28 29 28 29 27 23 22 21 21 21 21 21 21 23 25 24 22 22 28 33 33 33 33 33 33 32 32 32 32 32 32 31 31 30 28 28 27 26 26 25 25 25 24 23 23 23 23 23 23 22 21 20 20 19 19 19 18 18 18 18 18 18 18 18 18 18 18 18 18 18 18 18 18 17 17 17 17
23 23 31 34 33 33 33 32 31 31 28 27 30 27 24 25 23 21 22 22 22 22 23 23 23 25 27 31 34 33 32 33 32 32 32 31 32 32 32 32 31 31 30 29 28 27 27 26 26 25 25 24 24 23 23 23 23 23 22 21 21 21 20 19 19 18 18 18 18 18 18 18 18 18 18 18 18 18 17 17 18 18 17 17 17 17
23 24 33 34 33 35 33 33 34 31 26 26 26 24 27 30 26 22 22 23 22 21 22 23 23 26 29 30 33 33 32 32 32 32 32 31 31 31 31 31 31 31 31 30 29 28 27 27 26 26 25 25 24 24 24 24 24 23 23 22 21 21 20 20 19 19 18 18 18 18 18 18 18 18 18 18 18 18 17 17 17 17 17 17 17 16
26 24 31 34 32 34 35 34 34 33 31 28 25 26 30 31 29 25 22 22 22 21 22 23 22 23 24 25 31 33 31 32 32 32 32 31 31 31 31 31 31 31 31 31 30 29 28 27 27 26 26 25 25 24 24 24 24 23 23 22 21 21 21 20 20 19 19 18 18 18 18 18 18 18 18 18 18 18 18 17 17 17 17 17 17 16
30 24 28 34 32 33 36 34 31 33 34 31 29 31 30 25 24 24 22 22 22 22 23 22 22 23 22 24 29 31 31 32 32 32 31 31 31 31 31 31 31 31 31 31 30 29 28 27 27 27 26 26 26 25 25 24 24 23 23 22 22 21 21 21 20 20 19 19 19 18 18 18 17 18 18 18 18 18 18 18 18 17 17 17 17 17
32 25 24 32 34 33 34 31 27 28 32 32 32 33 31 26 24 24 24 23 22 22 22 22 22 22 23 27 30 31 32 32 32 32 32 31 31 31 31 31 31 31 30 31 31 30 29 28 28 27 27 27 27 25 25 25 24 24 23 23 22 22 21 21 21 20 20 19 19 19 19 18 18 18 18 18 18 18 18 18 18 18 18 17 17 16
33 27 23 29 34 31 29 30 29 29 30 30 28 28 28 28 27 26 25 24 23 22 22 22 22 22 27 32 33 32 32 32 32 32 32 32 32 31 31 31 31 31 30 30 31 30 29 28 28 28 27 28 27 26 26 25 25 24 23 23 23 22 22 21 21 20 20 20 20 19 19 19 18 18 18 18 18 18 18 18 18 18 18 18 17 17
31 28 24 25 28 26 28 33 34 33 33 31 29 28 28 28 25 24 24 24 24 23 22 23 21 23 30 34 34 33 33 33 33 33 32 32 32 32 31 31 31 30 30 30 30 30 29 28 29 29 28 28 28 27 27 26 25 25 24 23 23 23 22 22 21 21 20 20 20 20 19 19 18 18 18 18 18 18 18 18 18 18 17 17 17 17
33 31 26 24 26 28 32 35 34 34 35 34 32 32 32 30 26 22 22 23 24 23 24 23 21 24 32 35 33 33 33 33 34 33 33 33 32 32 31 31 31 30 30 30 30 30 30 28 29 29 29 29 28 28 28 27 26 26 25 25 24 23 23 23 22 21 20 20 20 20 19 19 18 18 18 18 18 17 17 18 18 17 17 17 17 17
33 31 26 23 27 31 33 35 35 35 35 33 32 34 33 31 29 27 26 25 24 23 23 23 21 24 32 34 33 34 34 34 34 33 33 33 32 32 31 31 31 30 30 30 30 30 30 29 29 30 29 29 29 28 28 28 27 27 26 26 25 25 24 24 24 22 21 20 20 20 19 19 18 18 18 18 17 17 17 17 17 17 17 17 17 17
30 29 26 23 23 26 27 29 30 32 33 31 32 34 33 32 32 30 28 26 24 23 23 23 21 24 31 34 34 34 34 33 33 33 33 32 31 32 31 31 31 30 30 30 30 30 30 29 29 30 30 30 30 29 28 28 27 27 27 26 26 26 25 24 24 24 22 21 20 20 19 19 18 18 18 18 18 17 17 17 17 17 17 17 17 17
30 29 28 23 21 22 22 23 25 27 30 31 32 33 34 33 32 29 26 23 23 23 24 23 22 25 31 34 33 33 33 33 33 33 33 32 32 32 31 31 30 30 29 29 30 29 29 29 29 30 30 30 30 29 28 28 27 27 27 27 26 26 25 24 24 24 23 22 21 20 19 19 19 18 18 18 18 18 18 17 17 17 17 17 17 17
32 31 30 26 23 24 24 25 30 31 29 28 29 31 32 33 34 31 26 23 23 24 23 24 25 25 29 32 33 33 33 32 32 32 33 32 32 31 31 30 30 29 29 29 29 28 28 29 29 29 29 30 30 29 29 28 28 27 27 27 26 26 26 25 24 24 23 22 21 21 20 19 19 19 18 18 18 18 18 18 17 17 17 17 17 17
30 28 29 29 27 28 29 30 33 33 29 28 29 30 32 33 33 30 25 25 27 24 22 26 28 25 26 32 33 32 33 32 32 32 32 32 31 31 31 30 30 29 29 29 28 28 28 28 28 28 28 28 29 29 29 28 28 28 28 27 26 25 25 24 24 23 23 22 22 21 21 20 20 19 19 19 18 18 18 18 18 18 17 17 17 17
30 27 29 30 28 30 33 33 33 33 32 32 31 30 31 32 31 29 27 29 30 25 23 27 28 26 28 32 33 33 33 33 32 32 32 32 31 31 30 30 30 29 29 29 28 28 27 27 27 27 27 27 28 28 28 28 28 28 28 27 27 26 25 24 23 23 23 22 22 22 21 21 20 20 20 19 19 18 18 18 18 18 18 18 17 17
30 27 30 31 28 29 33 33 34 33 31 31 32 32 33 32 32 31 30 32 32 28 28 30 29 29 32 33 33 33 33 33 33 33 32 32 31 31 30 30 30 30 29 29 28 28 27 27 27 26 26 26 27 27 28 28 28 28 27 27 27 26 25 24 23 23 23 22 22 22 21 21 21 21 21 20 20 19 19 19 18 18 18 18 18 17
28 27 31 31 26 27 31 33 33 33 31 30 30 33 33 32 32 32 32 33 31 29 31 32 28 29 33 34 33 33 33 33 33 32 32 32 32 31 31 30 30 30 30 29 28 28 28 27 26 26 26 26 26 27 26 27 27 26 26 26 26 25 25 24 23 23 22 22 22 22 21 21 21 20 20 20 20 20 20 19 19 19 18 18 18 18
28 28 30 29 24 24 29 31 31 32 31 28 28 31 32 31 31 31 32 33 31 29 30 29 26 29 33 34 33 33 33 33 33 33 33 32 32 31 31 31 30 30 30 29 28 28 28 27 26 26 26 26 26 26 26 26 26 26 25 25 25 24 24 24 23 23 22 22 22 22 21 21 21 20 20 20 20 20 20 19 19 19 19 18 18 18
28 27 27 27 23 23 27 30 30 29 27 24 27 31 32 32 32 32 33 34 33 32 29 27 28 31 33 33 33 33 33 33 33 33 32 32 32 32 31 31 31 30 30 29 29 29 28 27 26 26 26 26 26 26 25 25 25 25 24 24 24 24 24 23 23 23 23 23 22 22 22 22 22 21 21 21 21 20 20 20 19 19 19 19 19 18
28 27 26 26 23 22 26 29 28 25 22 24 30 34 34 34 33 32 32 33 34 34 32 31 33 33 32 32 33 33 33 33 33 33 33 33 32 31 31 32 31 31 31 30 30 29 28 27 26 26 26 26 26 25 24 24 24 24 24 23 23 23 23 23 23 23 23 23 23 23 22 22 22 22 21 21 21 21 20 20 20 20 19 19 19 18
27 26 26 26 24 23 25 26 23 21 23 29 33 34 34 35 35 34 33 34 34 34 34 34 34 33 33 33 33 33 33 34 34 34 34 33 32 32 32 32 31 31 30 29 28 27 26 26 26 26 26 26 25 24 24 24 24 24 23 23 23 23 23 24 24 23 23 23 23 23 23 23 22 22 22 22 21 21 21 20 20 20 19 19 18 18
27 26 25 25 24 23 23 23 22 23 28 32 33 33 34 34 34 32 30 32 34 34 34 34 33 33 33 33 33 33 33 34 34 34 33 33 32 32 31 31 31 30 28 27 26 26 26 26 26 25 25 25 25 24 24 24 24 24 24 24 24 25 24 24 24 24 23 23 23 23 22 22 22 22 22 22 21 21 21 20 20 20 19 19 18 18
28 26 25 23 23 23 22 21 23 25 26 29 31 32 33 32 33 31 28 30 34 35 34 34 34 33 33 33 33 33 33 33 32 32 32 32 32 32 31 30 29 28 27 26 26 26 26 25 25 25 25 25 25 25 25 25 25 25 25 25 25 25 24 23 23 23 23 22 22 22 22 22 22 21 21 21 20 20 20 19 19 19 19 19 18 18
29 28 26 23 23 24 22 21 23 23 23 26 30 32 32 32 33 33 29 29 33 34 34 34 34 33 33 33 32 33 32 32 30 30 31 32 32 31 30 29 28 27 26 26 26 25 25 25 25 25 25 25 25 25 25 25 25 25 24 24 24 23 23 22 22 22 22 22 21 21 21 21 21 20 20 19 19 19 19 19 19 18 18 18 18 18
29 28 26 23 22 23 21 21 22 21 23 28 32 33 32 31 33 33 28 26 31 34 34 34 34 33 33 32 32 32 31 30 29 29 31 32 31 29 28 27 27 26 26 26 26 25 25 25 25 25 25 24 24 24 24 23 23 23 23 23 22 22 22 21 21 21 21 21 20 20 20 20 19 19 19 18 18 18 18 18 18 18 18 18 18 18
26 25 23 22 22 22 21 21 22 23 26 31 33 33 32 33 33 30 23 24 31 34 33 34 34 33 32 32 32 31 31 30 30 30 31 30 29 27 27 26 26 26 26 26 25 25 25 25 25 24 24 24 24 23 23 22 22 22 22 21 21 21 21 21 20 20 20 20 20 20 19 19 18 18 18 18 18 18 17 17 17 17 17 17 17 18
22 21 21 21 22 22 21 21 22 24 28 32 33 33 34 33 30 25 23 27 32 33 33 34 33 32 32 31 31 31 31 31 31 31 30 29 27 27 27 27 26 26 26 26 25 25 25 25 24 24 24 24 23 23 22 22 21 21 20 20 20 20 20 20 19 19 19 19 19 19 19 18 18 18 18 18 18 17 17 17 17 17 17 17 17 17
20 20 20 21 22 22 22 22 22 24 28 31 32 33 33 29 25 25 29 31 32 31 32 33 32 32 31 31 31 32 31 31 31 30 29 28 27 27 27 27 27 26 26 25 25 25 25 24 24 24 23 23 23 22 22 21 21 20 20 19 19 19 19 19 19 18 18 18 18 18 18 18 18 18 18 18 18 17 17 17 17 17 17 17 17 17
19 19 20 22 22 22 22 22 21 23 26 28 28 30 32 29 28 30 32 31 31 31 32 32 32 31 31 31 31 31 30 30 30 29 28 27 27 27 27 26 26 26 25 25 25 24 24 24 23 23 22 22 22 21 21 20 20 19 19 19 19 19 19 18 18 17 17 17 17 17 17 17 18 18 18 18 17 17 17 17 17 17 17 17 17 17
19 19 19 20 21 21 21 22 22 23 24 24 23 26 29 30 31 32 31 30 31 32 31 31 31 31 31 31 30 29 29 29 28 27 28 27 27 27 26 25 25 25 25 25 24 24 23 23 22 22 21 21 21 20 20 19 19 19 19 18 18 18 18 17 17 16 16 17 17 17 17 17 18 18 17 17 17 16 17 17 17 17 17 17 18 17
18 18 17 18 19 20 21 22 23 23 23 22 22 23 26 29 30 31 31 31 31 31 31 31 30 30 31 30 29 28 28 27 27 27 27 27 26 26 25 25 25 25 25 24 23 23 22 21 21 21 20 20 20 19 19 19 18 18 18 18 18 17 17 17 16 16 16 16 17 17 17 17 17 17 17 17 16 16 17 17 17 17 17 17 17 17
18 17 17 18 19 20 21 23 23 21 21 21 20 21 24 26 27 28 30 32 31 30 31 31 30 30 30 29 29 28 27 27 27 26 26 25 25 25 25 24 24 24 23 23 22 22 21 21 20 20 20 19 19 19 19 19 18 18 18 18 17 17 16 16 16 16 16 16 16 16 17 17 17 16 16 16 16 16 16 16 16 16 16 17 17 17
18 17 17 17 18 19 20 22 22 20 20 20 19 21 24 25 24 22 25 30 32 31 30 31 30 30 30 29 29 27 26 26 26 25 25 25 24 24 24 23 23 23 22 22 21 21 20 20 20 19 19 19 19 19 19 19 18 18 17 17 17 16 16 16 16 15 16 16 16 16 16 16 16 15 15 15 15 15 16 16 16 16 16 16 16 16
17 17 16 17 17 18 19 21 20 20 21 21 19 20 23 25 24 21 22 27 31 32 31 31 30 29 29 28 27 26 26 26 25 25 25 25 24 23 23 22 22 22 21 21 21 21 20 20 20 19 19 19 18 18 18 18 18 18 17 17 17 16 16 16 15 15 16 16 16 16 15 15 15 15 15 15 15 15 16 16 16 16 16 16 15 15
17 16 16 16 16 16 18 19 19 19 21 22 21 21 22 23 24 23 23 25 27 29 30 30 29 29 29 28 27 26 26 25 25 25 24 24 23 23 22 22 22 21 21 21 20 20 20 19 19 19 18 18 18 17 17 17 17 17 17 17 16 16 16 15 15 15 15 15 15 15 14 14 14 14 15 15 15 15 16 16 16 15 15 15 14 13
17 16 16 16 15 15 17 18 17 17 18 20 21 22 22 23 24 25 25 25 24 24 26 28 28 29 28 27 27 26 25 25 25 24 24 23 22 22 22 22 21 21 20 20 19 19 19 18 18 18 18 18 18 17 17 17 17 17 17 16 16 16 15 15 15 15 15 15 15 14 14 14 14 14 15 15 15 15 15 14 14 14 14 13 12 12
17 17 17 16 15 15 16 17 18 17 17 19 21 22 22 23 24 25 26 25 22 21 21 24 27 29 27 26 27 26 25 25 25 24 23 23 22 22 21 21 20 20 19 19 18 18 18 18 18 18 18 18 17 17 17 17 16 16 16 16 15 15 14 14 14 14 14 14 14 14 14 14 14 14 14 14 14 14 13 13 13 14 13 12 11 11
Height
739 754 760 758 754 748 744 742 742 744 744 750 758 754 743 738 736 729 725 722 720 732 739 735 739 742 736 732 730 729 730 734 738 739 741 742 744 745 746 748 750 751 751 750 753 756 758 759 762 765 767 768 769 770 771 772 773 774 775 776 777 778 779 779 779 779 779 779 779 779 779 779 778 779 779 779 779 780 780 780 780 780 780 780 780 779
743 758 758 749 746 743 741 740 738 739 740 749 759 750 736 734 730 721 722 722 717 733 744 736 740 743 734 729 727 726 731 735 735 738 740 740 742 743 744 747 749 749 749 749 753 755 756 758 761 764 765 767 768 769 771 771 772 773 774 775 776 777 778 778 778 778 778 778 778 779 778 778 778 778 778 778 779 780 779 779 780 779 779 780 779 778
758 756 747 738 736 738 740 740 737 736 740 747 749 745 741 734 727 722 722 719 718 733 743 735 739 742 731 725 724 724 729 732 731 732 736 738 741 743 743 745 747 749 750 750 752 752 754 756 759 763 764 766 767 768 770 771 772 773 774 775 775 776 777 777 778 778 778 778 778 779 778 778 778 777 778 778 778 779 779 778 779 779 779 779 779 777
768 748 732 730 732 737 741 738 736 741 749 749 744 746 744 731 731 735 728 721 721 728 734 732 734 738 732 727 723 723 724 726 727 729 731 734 738 740 740 741 744 748 750 750 750 750 752 755 758 761 763 765 767 768 769 770 771 772 773 774 775 776 776 777 777 778 778 778 778 778 778 778 778 778 778 778 778 778 778 778 778 778 778 778 778 777
758 736 722 728 730 732 739 741 741 751 755 746 741 746 742 731 731 733 727 722 722 726 727 730 742 744 736 736 732 724 724 726 726 729 733 733 733 737 739 739 741 744 747 748 749 750 751 754 757 760 762 764 765 767 768 769 770 771 772 773 774 775 776 776 777 777 778 778 778 778 779 778 778 779 778 778 778 777 778 778 778 778 778 778 778 777
749 732 721 729 733 734 746 754 749 749 748 743 739 739 736 734 732 727 726 728 737 744 732 734 763 763 738 738 739 729 729 731 729 732 736 734 733 737 740 741 740 741 743 745 747 749 750 752 756 759 761 763 764 766 767 768 769 770 771 772 774 774 775 776 776 777 777 778 778 778 779 779 778 778 778 777 777 777 777 778 777 778 778 777 777 777
743 728 723 734 741 738 743 747 740 737 746 748 736 728 731 733 733 731 729 735 752 758 738 735 767 774 750 740 738 732 734 734 733 736 736 734 735 738 740 739 739 740 742 744 745 747 749 751 755 758 760 762 763 764 766 767 768 769 771 771 772 774 774 775 776 776 777 777 778 778 778 778 778 777 776 776 776 776 777 777 777 777 777 776 776 776
736 726 727 735 741 736 733 735 729 731 746 747 728 724 732 734 736 737 736 741 750 750 743 741 754 769 765 746 732 733 740 737 733 735 735 736 737 736 738 738 737 738 740 742 745 746 748 750 753 757 759 761 762 763 765 766 768 768 770 771 771 773 773 774 775 775 776 777 777 777 777 777 777 777 776 776 776 776 776 777 777 777 776 776 775 775
720 722 729 730 734 732 728 724 719 725 738 734 718 721 732 741 744 739 741 751 750 753 761 751 748 768 768 743 729 734 741 740 734 733 732 733 734 732 736 737 734 734 736 738 742 745 747 749 752 755 758 760 761 763 764 765 767 768 769 770 771 772 773 773 774 774 775 776 776 776 776 777 777 776 776 776 776 776 776 776 776 776 776 775 775 775
706 711 718 721 727 727 721 713 712 722 730 721 712 715 724 744 753 740 742 754 758 768 773 755 749 769 768 744 734 737 739 738 733 730 727 725 727 728 731 733 731 732 734 735 738 742 745 747 750 754 756 758 760 761 763 764 766 767 768 769 770 770 772 772 773 774 774 775 775 776 776 776 776 775 775 775 775 775 775 775 775 775 775 775 775 774
699 699 703 709 714 714 712 709 707 715 718 712 716 725 730 749 761 751 744 753 770 780 770 751 744 760 769 752 737 735 732 729 726 726 725 722 724 726 727 729 729 731 732 733 736 739 743 746 748 752 754 757 759 760 762 763 764 766 767 768 769 770 771 771 772 772 773 774 774 775 775 775 775 775 775 775 775 775 774 774 774 774 774 774 774 774
700 703 702 699 699 702 707 708 705 709 713 714 729 744 748 756 761 760 756 760 779 780 754 736 738 758 774 756 735 728 719 716 718 720 721 719 720 721 722 725 726 727 729 730 735 738 741 746 748 751 753 755 758 759 761 762 763 764 765 767 768 768 770 770 771 771 772 773 773 774 774 774 775 774 774 774 774 774 773 773 773 773 773 773 773 773
706 706 699 696 696 697 707 715 714 712 712 718 733 749 757 760 763 771 773 769 774 766 739 730 744 762 762 737 721 716 709 708 708 709 713 713 715 718 718 720 722 723 725 728 734 738 741 746 748 750 752 754 757 758 760 761 762 763 764 765 766 767 768 769 770 771 771 772 772 773 773 773 774 774 774 773 773 773 773 773 773 772 773 773 772 773
716 705 696 702 704 695 701 725 737 725 715 723 735 749 757 761 776 782 771 766 772 759 732 728 747 756 741 718 709 706 704 704 702 703 707 707 712 716 713 716 719 720 723 728 733 738 741 744 746 749 751 753 756 757 759 760 761 762 762 764 765 766 767 768 769 769 770 771 771 772 772 772 773 773 773 773 772 772 772 772 772 772 772 772 772 772
731 726 706 701 703 696 695 717 733 722 719 725 723 735 743 747 776 787 770 774 781 760 730 728 747 752 737 717 703 700 701 701 701 702 705 708 711 713 711 714 717 720 724 729 733 737 739 741 744 747 749 751 754 756 757 758 759 760 761 762 764 765 766 767 767 768 769 769 770 770 771 771 772 772 771 772 772 771 771 771 771 771 771 771 771 771
729 728 701 687 689 691 693 699 701 707 729 731 717 731 737 732 754 765 755 756 759 755 739 731 738 733 720 708 697 699 704 701 703 706 708 712 712 710 713 715 717 721 724 727 731 734 737 739 741 744 747 749 752 754 756 757 758 759 760 761 762 763 764 765 766 767 767 768 769 769 770 770 770 771 770 770 771 770 770 770 770 770 770 769 769 769
726 721 693 685 686 684 689 691 688 704 734 738 734 741 727 715 731 744 746 738 741 761 750 729 732 722 712 713 703 702 709 705 707 710 711 714 713 714 717 717 719 720 721 724 728 731 734 737 739 742 745 747 749 752 754 755 756 757 758 760 761 762 763 764 764 765 766 766 767 768 768 769 769 769 769 769 769 769 769 769 769 769 769 768 768 768
717 720 696 688 695 685 677 685 687 691 707 723 733 729 710 709 718 729 750 749 748 763 743 724 737 735 731 733 713 706 714 712 709 711 712 714 716 718 719 718 719 718 719 722 724 728 731 735 738 740 744 746 747 750 753 755 756 756 758 759 760 761 761 762 763 764 765 765 766 766 767 767 768 768 768 768 768 768 768 768 768 768 768 767 768 767
702 719 706 687 694 689 674 686 699 690 689 702 710 705 709 729 731 728 748 757 755 757 741 732 741 742 742 734 716 714 718 713 711 711 713 716 717 719 719 718 718 717 720 721 723 727 730 733 736 739 742 744 745 749 751 754 755 756 757 758 759 760 760 761 762 762 763 763 764 765 765 766 766 766 767 767 767 767 767 767 766 766 766 766 767 767
694 718 721 694 687 690 685 695 710 705 695 696 698 698 705 722 730 728 734 743 749 750 743 742 745 744 736 719 709 714 712 709 712 711 713 715 715 716 716 716 717 718 722 722 722 726 728 731 735 737 741 741 743 748 750 752 754 755 756 757 758 759 759 760 760 760 761 762 762 763 764 764 765 765 765 765 766 766 765 765 765 765 765 765 765 765
692 713 726 705 687 695 701 700 703 705 702 703 707 709 708 711 719 724 723 722 730 741 742 747 755 741 715 700 701 706 706 705 707 708 711 711 710 712 713 714 716 718 722 722 721 724 726 730 733 735 739 739 741 745 747 749 752 753 754 755 756 757 758 759 759 759 760 760 761 761 762 762 763 763 764 764 764 764 764 764 764 764 764 764 764 764
693 706 719 713 701 704 702 688 683 688 691 697 703 705 705 709 720 736 738 718 713 729 731 740 759 739 699 690 695 697 701 701 699 704 707 706 708 710 711 713 715 717 722 722 721 722 725 728 731 733 736 738 739 742 744 745 748 750 751 752 753 755 756 757 757 758 759 759 760 760 760 761 761 761 762 762 762 762 762 762 762 762 762 762 762 762
682 694 708 713 706 702 691 678 676 678 678 683 691 693 694 699 712 735 744 724 715 723 715 724 752 734 694 688 694 694 696 695 695 700 702 703 706 708 710 712 714 717 720 721 721 722 724 727 730 731 733 736 737 738 740 742 745 747 748 749 750 751 753 754 755 756 757 757 758 758 759 759 759 759 760 760 760 760 760 761 761 761 761 761 761 760
679 692 706 711 703 692 683 675 672 671 676 685 688 686 690 696 702 713 721 720 725 727 716 726 749 731 698 690 692 691 691 692 695 696 698 703 704 706 710 712 714 717 718 719 721 721 723 727 728 729 731 733 733 735 738 740 742 744 744 746 747 748 750 751 752 753 754 756 756 757 758 758 758 758 758 758 758 758 758 759 759 759 759 759 759 758
687 696 704 718 722 713 707 702 692 682 684 691 689 684 686 691 697 702 706 717 729 724 715 732 747 727 701 692 691 692 693 695 696 694 696 702 705 707 709 711 714 717 718 721 722 721 724 726 727 727 728 730 730 732 735 738 740 741 742 744 745 745 747 749 750 751 752 754 755 755 756 757 757 757 756 756 756 756 757 757 757 757 757 757 757 756
687 694 698 718 734 734 732 725 710 695 691 691 690 686 684 685 692 699 707 722 733 721 711 727 737 720 702 697 696 696 697 699 700 697 697 701 706 708 709 713 716 719 722 723 722 723 725 726 726 725 726 727 729 730 733 735 738 740 740 742 743 744 745 747 748 750 750 752 753 754 754 755 755 755 755 755 754 755 755 755 755 755 755 755 754 754
685 691 691 705 715 715 715 706 691 687 693 695 693 689 687 685 685 692 705 719 722 716 715 718 720 718 711 703 700 699 700 702 703 702 701 702 706 708 710 715 718 721 724 723 723 725 726 726 726 725 725 727 728 729 731 734 736 738 738 740 742 744 745 746 747 748 750 751 752 753 753 753 753 754 754 754 753 753 754 753 753 753 753 753 752 753
688 696 692 695 699 694 692 687 680 682 690 691 689 688 686 685 684 691 705 708 705 716 727 716 708 718 718 705 700 700 700 701 703 703 702 703 706 708 711 715 718 721 722 722 725 728 728 728 727 725 726 727 729 730 730 732 735 735 737 739 740 743 745 745 746 748 749 750 751 752 752 752 753 752 753 753 753 753 752 752 752 751 751 751 750 750
687 696 690 691 696 690 684 682 679 680 684 683 684 685 683 683 686 691 698 696 696 712 724 712 707 715 713 702 698 697 696 698 700 700 699 701 705 707 710 715 717 719 721 723 727 729 729 730 729 728 729 730 732 733 731 733 734 734 736 738 739 741 743 744 746 747 749 750 750 751 752 752 752 751 751 751 751 751 751 750 750 749 749 749 748 748
684 692 688 689 695 690 683 680 677 678 682 682 682 681 680 682 683 686 689 688 691 701 704 702 706 707 699 694 692 689 690 692 693 695 697 700 704 706 710 714 715 717 720 722 726 728 729 729 730 731 732 733 734 734 734 735 734 735 737 738 739 741 742 744 746 747 749 749 749 750 750 751 750 749 749 749 748 748 748 747 748 748 747 747 746 746
689 693 687 688 697 693 683 678 677 680 684 684 683 680 679 681 682 683 685 685 689 697 694 694 705 705 691 686 687 687 688 689 691 696 697 699 702 705 709 712 714 716 719 722 725 727 726 727 730 732 733 734 736 735 737 737 736 738 740 740 741 741 742 744 746 747 748 748 748 749 749 749 748 748 748 747 746 746 745 745 745 745 745 745 744 744
696 696 689 692 706 702 687 682 682 678 679 684 685 681 679 682 684 683 682 682 688 695 696 698 706 704 689 682 687 688 688 690 693 695 696 697 699 703 707 710 712 714 717 721 723 724 724 726 729 732 732 734 736 737 738 739 739 740 741 741 742 743 744 745 745 747 748 747 747 747 746 746 746 746 746 745 744 744 744 744 743 743 743 742 742 742
701 702 697 699 712 708 692 686 682 682 694 699 687 679 678 678 679 680 679 678 679 685 696 702 700 692 684 683 687 690 690 693 692 691 694 696 697 701 704 705 708 711 713 717 719 720 723 726 728 730 732 733 735 737 738 739 740 741 741 742 743 744 745 746 746 747 747 746 746 745 744 745 744 743 744 743 742 743 742 742 742 741 741 740 740 740
703 706 705 704 713 714 698 685 687 703 718 706 677 668 672 672 674 680 681 678 674 676 683 687 684 682 684 686 688 690 690 690 687 685 687 690 694 699 701 701 704 707 709 712 714 717 722 725 728 730 731 733 735 737 739 740 740 741 742 743 744 745 746 746 745 746 746 745 745 744 744 744 743 742 742 741 741 741 740 740 740 739 739 738 738 738
707 710 710 707 712 713 698 695 716 729 714 687 669 665 665 664 666 673 676 673 671 672 675 678 679 679 682 683 684 685 685 683 681 681 682 686 691 696 699 702 703 705 709 712 714 718 722 725 728 731 731 733 735 737 739 740 741 742 743 744 744 745 745 745 744 745 745 745 745 744 744 743 742 742 741 740 740 739 739 738 738 737 737 737 736 736
707 713 714 712 715 715 709 711 726 721 691 671 672 669 664 666 671 677 684 678 668 669 673 675 676 675 677 680 680 680 680 679 679 681 681 684 689 692 698 702 703 706 711 714 717 721 723 726 729 731 732 734 735 736 738 739 740 741 741 742 743 743 744 744 744 745 745 745 745 745 744 743 742 741 740 740 739 738 738 738 737 737 736 735 735 735
700 709 715 721 721 720 721 716 706 700 691 682 679 673 670 674 676 682 693 686 668 664 668 671 673 674 676 679 678 679 680 682 688 690 685 686 690 692 696 700 703 708 712 714 718 722 724 728 731 732 734 734 735 736 737 738 740 740 741 742 742 743 744 745 746 746 746 746 746 746 745 744 743 742 741 740 739 739 738 737 737 736 735 734 734 733
691 698 708 721 721 717 725 726 713 711 708 691 677 670 668 671 670 673 689 690 672 663 664 667 671 672 674 679 681 682 684 693 704 702 691 687 690 692 697 702 705 710 713 716 720 723 726 730 731 733 735 735 736 737 738 740 741 742 743 744 744 745 746 747 748 748 748 747 747 746 745 745 743 742 741 741 740 740 739 738 737 736 734 734 732 731
688 694 703 718 721 718 728 736 727 717 703 682 670 666 665 669 666 671 694 698 676 663 663 665 667 671 675 680 682 684 692 704 710 704 691 689 692 696 701 706 708 712 716 719 722 725 727 731 733 735 737 737 739 740 741 742 743 744 746 747 747 748 748 749 750 749 749 749 748 747 746 745 744 743 743 742 741 740 739 738 737 735 734 733 731 730
701 708 719 726 722 718 725 730 722 707 688 670 664 663 662 662 664 687 716 708 674 661 664 663 666 671 675 678 680 686 696 702 702 697 690 690 695 699 704 708 711 714 717 721 724 726 728 731 734 736 738 740 741 742 743 745 746 747 749 749 750 750 750 750 751 750 750 750 748 748 747 745 745 744 743 743 741 740 739 738 736 735 734 732 731 729
720 724 731 729 719 715 722 726 720 705 683 666 661 658 655 661 678 704 715 693 668 664 664 661 666 671 673 678 681 685 689 687 685 687 688 691 698 702 705 709 712 715 718 723 726 727 729 732 735 738 740 741 743 744 746 747 748 750 751 752 752 752 751 752 752 751 751 750 749 748 747 746 746 744 743 742 741 740 739 738 736 735 733 732 730 728
738 738 735 727 717 712 713 717 719 706 681 665 663 656 655 675 696 696 681 668 666 670 666 665 670 671 672 677 679 680 681 679 680 685 690 695 701 704 706 710 713 717 721 725 727 728 730 734 737 740 741 743 745 746 748 749 751 752 753 754 754 753 753 753 752 752 752 750 749 748 747 746 745 744 742 742 740 740 739 737 735 734 732 731 729 727
742 744 737 724 717 714 713 717 724 715 689 673 675 669 663 674 682 670 661 664 666 666 669 672 671 670 673 677 678 679 680 681 684 689 693 698 701 704 708 712 715 720 723 726 729 731 733 737 740 742 744 746 748 749 750 752 753 753 754 755 754 754 754 754 753 753 752 751 749 748 747 746 745 743 742 741 740 739 738 736 734 732 731 729 728 726
741 744 742 733 726 727 725 717 714 709 695 686 692 690 674 664 659 656 661 666 664 663 669 673 670 669 672 676 679 682 684 686 690 693 696 700 703 706 711 715 718 722 725 728 732 734 737 740 743 744 747 748 750 752 753 754 755 755 755 755 755 755 755 754 754 753 752 751 750 749 748 746 745 744 743 741 740 739 737 735 733 731 730 729 727 725
742 744 746 742 734 731 725 711 702 700 696 692 697 698 683 665 657 655 657 660 662 663 664 667 671 669 669 674 680 684 686 690 693 695 697 701 705 710 715 718 721 724 727 731 735 737 740 743 745 747 749 751 752 753 754 755 756 756 756 756 756 756 756 755 755 753 752 751 750 749 748 746 744 744 743 741 740 738 736 735 733 731 730 729 727 725
738 740 741 740 734 726 717 706 701 703 700 698 702 701 687 672 663 661 659 657 658 659 659 663 668 668 668 673 679 683 688 690 693 697 700 704 709 713 716 719 723 726 730 734 737 740 743 745 747 749 750 752 754 754 755 755 756 756 756 757 756 756 756 755 754 753 752 751 750 748 747 746 745 744 743 742 740 738 737 735 733 732 731 729 727 726
737 739 741 741 739 735 724 710 706 707 705 706 710 703 686 673 668 669 669 662 655 655 657 659 662 665 668 672 677 684 689 690 694 700 703 706 711 714 717 722 726 729 733 736 739 742 744 746 748 750 751 753 754 754 755 756 756 756 757 757 756 756 756 755 754 753 752 751 749 748 747 746 745 744 743 741 740 738 737 735 734 732 731 729 728 726
740 741 744 745 743 740 730 717 712 709 702 705 712 706 690 680 677 677 677 668 657 654 654 655 659 664 668 672 677 684 689 692 696 700 704 708 712 716 720 724 728 731 735 738 740 742 744 746 748 750 751 753 754 755 756 756 756 757 757 757 757 756 756 755 754 753 752 750 749 748 747 746 745 744 742 741 739 737 736 734 733 731 730 729 728 726
743 746 747 746 745 741 731 720 717 713 704 702 706 703 695 689 686 684 681 672 663 659 656 655 658 662 666 672 677 682 688 693 695 698 703 709 713 717 722 725 728 733 736 738 741 743 744 746 749 750 752 753 754 755 756 756 757 757 757 757 757 756 756 755 754 753 752 750 749 748 748 747 745 744 742 740 738 736 735 734 733 731 730 729 728 728
744 746 744 747 751 747 736 728 728 729 723 713 706 702 698 692 688 685 681 674 670 668 665 662 662 663 667 671 675 680 687 692 694 699 704 709 714 718 722 726 729 733 736 739 742 744 745 748 749 751 752 754 754 755 756 757 757 758 757 758 757 756 756 755 754 753 752 750 749 749 748 746 745 743 741 739 737 736 735 733 733 732 731 729 728 727
742 742 741 746 749 744 736 731 731 734 731 720 710 706 702 694 688 685 680 677 678 679 678 676 670 666 670 674 675 680 686 690 694 700 704 710 715 719 722 727 730 733 737 740 742 745 747 749 750 751 753 754 754 756 756 757 758 758 758 758 757 757 756 755 754 753 752 751 750 749 747 746 744 742 741 739 737 736 734 733 732 732 731 729 727 726
Wind_Speed
1 2 3 5 7 7 8 7 9 9 3 3 11 12 7 5 5 7 9 10 11 6 3 4 4 4 7 9 10 11 11 10 9 8 7 8 7 6 6 7 7 6 6 8 11 10 10 11 12 12 12 11 10 10 10 10 10 9 9 9 8 8 8 8 8 8 9 9 8 7 4 5 7 5 3 4 4 3 1 3 2 3 5 5 6 6
4 5 6 8 10 10 10 10 11 11 8 8 10 10 5 4 4 8 9 10 9 4 3 5 5 7 10 9 10 11 11 9 9 8 7 8 8 7 6 8 8 6 6 9 11 10 11 12 13 13 13 13 12 11 11 10 11 10 9 9 9 9 8 9 9 7 8 7 3 2 4 4 4 3 3 3 3 1 3 2 2 4 5 3 6 8
4 8 9 11 11 9 10 14 14 11 8 6 5 5 4 2 2 8 8 8 7 3 4 8 8 7 7 7 10 11 10 9 8 9 7 7 8 7 7 8 9 7 6 9 9 10 12 13 14 13 13 13 12 11 11 11 11 10 10 9 9 9 8 8 8 5 5 6 4 4 3 4 7 5 2 1 0 2 3 3 3 4 4 3 6 9
5 8 6 7 10 11 13 13 12 8 6 4 2 3 4 2 1 4 6 7 7 4 2 4 4 2 2 3 8 10 9 8 9 9 8 7 7 7 7 8 10 8 7 8 8 8 10 13 15 13 13 13 12 11 11 11 11 11 10 10 9 9 8 7 7 6 5 5 5 3 3 3 5 5 2 3 5 6 7 6 5 4 4 4 6 7
9 11 5 9 12 13 10 9 11 8 4 3 1 2 4 3 2 2 3 6 8 6 2 2 1 3 3 4 4 6 7 8 9 9 8 8 8 7 5 7 9 10 8 7 8 7 8 12 14 14 13 13 12 12 11 12 11 10 11 10 9 9 8 7 7 7 6 5 4 3 2 3 4 3 4 6 9 9 7 5 5 5 5 4 6 7
10 18 9 4 8 9 9 8 11 8 4 4 3 4 7 5 4 5 4 4 3 3 1 2 0 2 4 6 6 5 7 8 8 8 8 8 8 8 7 7 8 10 9 7 8 9 8 11 14 14 14 14 12 12 12 12 11 10 11 11 10 9 8 7 7 7 7 6 6 5 5 6 7 7 8 8 6 4 3 5 4 3 5 6 8 7
9 17 7 2 10 10 10 9 8 4 3 2 4 6 6 4 4 7 5 4 1 2 2 4 0 1 2 7 8 5 6 8 9 10 9 7 7 8 8 7 8 10 9 7 7 9 9 11 12 13 14 14 12 12 12 11 11 11 11 11 10 9 8 7 7 8 7 7 7 8 8 8 8 7 7 5 4 4 4 6 5 3 7 9 8 6
10 12 5 6 14 11 6 7 6 5 2 3 6 8 5 6 8 7 4 4 2 3 0 3 1 2 3 6 8 7 9 9 11 11 11 10 9 10 9 8 9 10 10 9 8 9 9 10 12 13 14 14 13 12 12 12 11 11 11 11 11 9 8 8 8 8 8 7 7 8 8 7 7 7 7 5 4 4 4 6 6 6 8 9 6 3
13 11 7 9 10 6 4 6 9 9 5 4 8 10 11 10 8 3 3 3 3 2 4 4 3 3 3 4 7 10 11 10 10 9 11 14 13 11 11 11 10 10 11 10 10 10 9 10 13 14 14 13 13 13 13 13 12 12 12 11 11 10 9 8 9 9 8 8 7 7 8 8 8 8 7 6 5 5 4 5 6 7 8 8 5 4
6 8 13 11 6 4 6 4 11 11 6 4 9 10 10 8 0 2 6 4 3 0 4 6 6 4 2 3 6 9 9 8 8 8 8 11 12 10 11 10 8 9 9 9 11 11 11 12 15 15 15 14 14 14 14 13 13 13 12 12 12 10 9 9 9 9 9 8 8 7 8 8 8 7 7 5 5 5 5 7 8 8 7 7 6 5
3 5 12 11 6 5 7 7 12 11 8 7 6 7 2 10 3 2 4 4 3 0 6 11 12 5 1 3 5 5 8 7 8 9 9 11 14 13 12 10 9 10 9 9 11 12 12 14 16 16 15 15 15 15 14 14 14 13 13 13 12 11 10 10 10 9 9 9 8 8 8 8 8 7 6 6 6 7 8 9 9 7 6 6 7 7
6 6 8 7 7 6 8 10 11 12 12 8 4 1 1 6 4 2 3 3 2 3 7 11 11 4 1 4 6 6 11 12 9 10 10 12 13 13 12 12 12 11 10 11 10 10 10 11 13 15 15 15 16 15 15 14 14 13 13 13 13 12 11 10 10 10 9 9 9 9 8 8 8 8 7 7 7 8 8 8 7 6 5 6 7 7
6 9 8 8 7 7 8 6 6 11 13 8 7 3 3 3 3 4 3 2 2 4 7 12 12 3 2 5 8 10 12 10 9 9 9 10 11 11 12 12 11 10 11 12 10 9 9 8 9 12 14 15 15 16 16 15 14 14 14 14 14 13 12 11 10 10 10 10 9 9 9 8 8 8 7 7 6 6 7 6 5 4 5 7 7 7
5 8 10 10 8 10 9 3 2 5 5 5 6 1 4 2 2 3 3 2 2 6 6 14 13 4 3 6 8 10 11 7 7 10 8 8 10 8 9 11 11 10 10 11 11 10 10 9 9 11 14 15 15 16 16 15 15 14 14 15 14 13 13 12 11 11 11 11 10 9 9 8 8 8 8 7 7 6 6 5 6 6 6 7 6 7
6 5 9 10 8 9 10 8 8 6 1 3 7 4 6 2 2 1 2 1 3 6 6 12 7 3 2 7 8 10 11 8 7 10 9 9 8 6 8 10 10 10 11 11 12 12 10 10 11 12 13 14 15 16 16 16 15 14 15 16 14 14 14 13 12 12 11 11 11 10 9 9 8 8 8 7 8 8 7 6 7 8 8 8 8 8
7 5 8 10 8 9 8 9 10 6 1 1 3 4 6 2 4 3 4 4 3 3 4 5 3 3 4 8 10 9 9 9 9 10 9 9 8 6 7 9 9 10 11 11 11 11 10 11 13 14 14 14 15 16 17 17 16 15 15 15 15 14 14 14 13 13 12 12 11 11 10 10 9 9 8 8 8 8 9 8 8 8 8 9 9 9
6 4 4 9 10 10 8 8 8 4 3 2 2 3 4 4 5 3 3 5 2 1 3 3 4 6 6 7 8 10 10 10 10 10 9 10 8 5 5 7 7 8 10 10 11 11 11 12 13 15 15 15 15 17 17 17 16 16 15 15 15 14 14 15 14 13 13 12 12 11 11 11 10 10 10 9 8 8 9 9 9 9 9 8 8 8
5 4 5 9 10 9 8 10 11 10 8 5 3 2 3 6 8 3 1 2 2 3 3 4 3 2 4 5 7 10 10 9 10 11 10 11 9 5 5 6 7 8 8 10 11 10 11 11 11 13 15 14 16 17 17 17 16 16 15 15 15 15 15 15 15 14 13 13 12 12 12 12 11 11 10 10 10 9 9 9 10 11 10 10 9 9
6 5 5 8 7 7 8 8 9 11 10 6 3 2 2 4 4 2 2 2 2 2 3 7 6 1 1 3 7 10 9 9 11 11 12 11 9 8 7 7 8 7 6 7 9 9 10 9 10 13 14 14 16 16 15 16 15 15 15 15 15 16 15 15 15 14 13 13 12 11 12 12 12 11 11 10 10 9 9 10 10 10 11 11 10 10
5 4 4 6 8 7 7 6 6 7 11 10 7 5 4 2 1 2 1 1 2 2 2 7 6 2 3 5 8 10 9 9 10 10 11 11 10 9 8 8 8 8 5 4 8 9 9 10 11 15 15 13 15 15 13 14 14 14 15 14 14 15 15 15 15 15 14 13 12 11 11 12 12 11 11 10 10 10 10 10 10 10 10 10 10 10
5 4 3 6 9 8 5 6 7 6 8 9 7 6 6 5 2 2 2 3 3 2 1 4 2 1 4 6 8 11 10 9 9 10 10 10 10 8 7 6 6 9 6 4 6 8 9 10 10 15 15 12 14 15 14 16 15 14 14 13 14 15 15 15 16 15 14 14 13 12 11 12 12 11 11 11 11 11 11 11 11 10 10 9 9 9
5 5 5 6 6 7 7 8 9 9 7 7 6 6 6 5 4 3 4 5 3 1 1 4 2 0 4 6 7 9 9 9 10 11 9 9 10 8 7 7 6 8 6 2 3 6 8 9 9 13 13 10 12 15 14 16 16 14 14 13 14 15 15 15 16 16 14 13 13 13 13 12 13 12 12 12 12 12 12 11 11 11 11 11 10 10
6 5 6 6 5 7 9 9 10 11 10 9 6 5 6 5 5 4 3 3 2 2 1 6 4 1 5 8 6 7 8 9 9 9 8 9 10 9 8 8 7 9 8 3 2 4 7 9 7 10 12 10 12 15 14 14 16 15 16 14 14 17 17 15 15 16 15 14 13 13 14 13 13 13 12 12 13 13 12 12 11 11 11 11 12 11
6 5 6 6 6 8 9 9 10 11 10 9 6 6 6 4 3 4 3 1 4 4 2 5 5 3 6 7 5 6 7 9 8 8 8 8 9 9 9 9 7 7 8 5 3 2 5 8 6 7 11 11 12 14 13 12 13 13 14 14 13 15 18 15 14 16 16 15 14 13 13 13 13 13 13 13 14 13 13 13 12 12 12 12 12 12
4 6 7 6 6 7 7 8 9 9 8 6 5 7 7 7 7 6 6 2 3 5 5 1 4 4 6 6 6 7 8 8 7 6 8 9 8 7 8 8 7 6 7 5 3 3 4 6 5 6 8 9 9 11 13 13 11 10 11 13 11 11 16 15 12 13 15 15 14 14 14 14 14 14 14 14 14 14 13 13 13 13 13 13 13 13
4 6 6 6 7 6 5 6 7 6 6 6 7 10 9 9 10 6 5 3 3 4 6 1 4 3 6 7 8 9 9 8 7 4 6 10 8 6 7 7 7 6 5 4 3 4 3 3 4 4 5 7 6 7 11 12 9 8 9 11 10 8 11 14 11 10 12 13 13 14 14 14 14 15 15 15 15 14 14 13 13 14 13 14 14 14
4 6 7 9 9 8 8 8 7 6 6 7 10 12 11 10 10 7 5 4 3 3 4 4 7 6 5 7 9 10 8 8 9 5 6 9 7 6 7 7 7 6 4 4 4 4 2 2 2 1 1 1 3 4 7 10 9 9 9 10 10 5 5 9 11 9 10 11 12 13 14 15 15 14 14 15 15 14 14 14 14 14 14 14 14 14
4 7 10 13 13 13 13 12 10 8 9 10 11 12 13 12 12 9 6 5 5 3 2 5 10 8 5 7 8 10 8 8 10 6 6 10 8 6 8 7 8 8 6 6 6 4 2 1 3 4 5 5 6 6 1 4 6 6 7 8 9 6 6 7 10 8 9 10 11 11 12 13 13 13 13 13 13 14 14 14 15 15 15 15 15 15
5 6 9 13 15 16 17 16 14 11 10 11 11 11 12 12 12 10 7 7 7 3 2 5 7 8 8 9 8 10 8 9 10 7 6 10 8 8 10 9 9 10 9 8 8 6 4 2 1 4 7 6 6 6 4 2 4 3 3 5 7 6 7 8 9 7 8 9 10 11 11 11 11 12 13 13 13 14 14 15 16 16 16 16 16 17
7 5 8 12 14 17 18 17 16 14 12 12 12 11 11 11 12 12 10 11 9 6 6 8 7 6 5 5 7 8 7 7 9 7 7 10 10 10 10 9 9 10 10 10 10 7 5 5 4 4 4 2 3 3 4 4 3 2 2 2 3 3 6 7 7 6 7 8 9 9 10 11 12 12 13 13 14 15 15 16 17 17 17 17 17 17
7 5 7 10 11 14 16 16 15 15 15 14 12 11 11 11 12 12 11 11 10 9 10 10 7 5 3 5 6 5 5 7 8 9 9 9 10 10 9 9 9 9 10 11 11 8 7 7 7 4 3 1 1 2 5 6 3 6 5 3 2 3 3 4 4 5 5 7 8 8 10 12 13 13 13 14 14 15 16 16 16 17 17 18 18 19
7 5 6 8 7 9 13 16 17 17 17 16 14 14 13 11 10 10 9 8 7 7 8 8 7 6 5 7 8 7 6 6 7 9 8 7 10 10 8 9 10 9 11 13 12 10 9 10 9 6 5 5 4 4 3 3 2 5 4 3 6 5 2 1 1 3 5 7 8 8 9 11 11 11 11 13 13 14 15 14 15 17 18 18 19 19
7 6 6 7 6 7 12 17 16 13 13 12 10 11 12 11 10 9 8 9 9 7 5 5 6 4 3 3 6 9 7 6 6 8 8 6 9 10 7 9 10 10 11 12 11 10 10 10 9 8 7 7 6 6 6 2 2 6 7 6 6 4 2 2 3 5 5 7 8 8 8 8 10 10 11 11 12 12 13 13 14 17 17 17 18 18
7 6 6 5 5 7 11 14 11 9 8 6 5 9 13 14 13 11 9 10 11 9 6 5 6 5 6 2 3 6 7 6 6 7 8 6 6 8 8 7 9 10 10 10 9 10 11 9 10 10 8 7 8 10 10 7 6 8 7 4 3 2 1 2 3 3 3 6 8 7 7 8 9 10 10 11 12 13 13 14 16 17 17 18 18 16
7 6 5 5 5 7 9 9 7 8 8 6 6 11 14 13 11 10 10 11 11 10 10 10 9 7 8 6 4 4 6 7 7 8 9 7 5 7 6 5 7 9 8 8 9 11 10 9 10 11 9 10 12 12 11 8 6 6 5 4 3 2 1 1 2 3 4 6 8 8 9 9 10 10 10 10 11 12 13 13 14 14 15 15 16 15
7 5 5 4 4 6 6 7 7 7 9 9 10 12 12 9 7 6 7 10 11 10 10 11 10 8 8 8 7 4 3 4 5 5 6 7 5 6 5 4 7 10 10 11 11 10 11 11 11 11 11 11 12 11 10 9 8 7 7 6 5 4 4 5 6 7 8 8 10 12 13 14 14 14 14 14 14 15 15 15 14 14 14 14 14 15
10 7 3 2 4 5 6 7 7 8 10 10 9 6 5 3 3 3 4 6 8 8 8 9 9 9 9 8 7 4 2 3 1 2 6 8 6 5 6 8 12 14 13 14 14 13 14 14 12 12 12 11 11 10 9 8 7 7 7 6 5 7 9 10 10 11 13 12 12 14 15 15 16 16 15 15 15 15 17 17 18 18 16 15 14 15
13 8 4 3 3 4 4 6 7 8 8 8 7 5 1 3 4 5 5 5 6 7 7 7 8 8 9 8 6 5 5 4 2 2 6 10 9 9 12 14 15 15 16 17 17 17 16 15 13 13 13 13 13 12 11 10 9 9 10 10 10 11 11 11 11 12 13 13 13 14 15 15 15 15 16 16 16 17 17 17 18 18 17 17 16 16
14 8 3 3 4 3 3 5 7 6 5 6 8 8 6 7 8 7 7 6 5 5 8 8 7 6 7 9 8 6 5 5 5 4 4 8 12 14 15 15 15 16 18 18 18 18 18 16 15 15 14 14 15 14 14 14 13 12 11 11 11 11 10 10 11 12 13 13 13 14 15 15 15 15 16 16 16 16 16 17 17 18 19 19 18 17
8 4 1 5 7 5 4 5 5 6 6 5 8 10 11 11 9 7 7 5 3 5 6 5 4 4 6 8 8 7 6 5 5 7 7 11 15 15 15 15 15 15 17 17 18 20 19 17 16 15 14 14 13 13 13 14 15 14 12 11 10 10 10 10 10 11 12 12 13 13 13 13 14 14 15 15 14 14 16 18 18 18 19 19 19 18
5 2 2 7 8 7 7 7 5 6 7 4 6 8 10 10 7 8 7 2 2 1 1 3 2 2 6 9 7 6 5 3 5 10 12 14 17 15 14 15 16 16 18 19 19 20 19 17 16 15 14 13 13 13 13 12 12 13 11 10 10 10 9 9 10 11 12 13 14 13 12 13 14 14 14 13 12 14 17 18 18 18 17 17 18 18
4 2 3 7 7 7 7 7 6 6 4 5 8 8 6 9 7 7 4 4 3 4 5 3 2 5 8 8 4 4 6 9 12 14 15 16 16 14 14 15 16 17 18 18 18 18 18 17 16 15 14 14 13 13 12 12 11 11 9 9 9 9 9 9 10 11 13 14 13 12 13 14 15 14 13 13 13 15 18 19 18 17 16 16 16 17
3 2 3 4 4 6 7 6 6 4 5 14 16 9 6 7 5 3 5 6 6 6 3 1 1 7 8 5 3 5 10 14 16 16 17 16 15 15 14 14 15 16 17 16 16 17 18 16 16 16 15 14 14 13 12 12 11 9 8 8 9 9 10 10 10 12 13 14 13 14 14 15 15 14 14 13 14 17 20 21 19 17 17 17 16 15
3 2 3 3 3 3 5 4 2 4 9 15 13 7 6 4 1 4 6 6 6 7 6 3 2 6 7 6 8 11 12 14 15 15 15 15 14 15 15 14 14 15 17 17 17 18 18 16 16 16 15 14 13 12 11 11 10 9 8 7 8 9 10 10 11 12 14 14 14 15 15 15 15 15 15 16 18 19 20 20 20 19 18 18 17 15
2 5 4 3 4 5 6 5 7 9 10 11 10 9 12 11 6 3 6 7 7 6 6 4 4 5 7 9 11 13 12 13 14 14 14 14 15 15 15 15 15 16 17 18 18 18 18 17 16 16 15 14 12 11 10 9 9 9 8 7 8 9 10 10 11 13 14 14 14 15 16 15 15 15 17 19 20 19 19 19 20 20 19 19 19 18
4 7 5 4 7 9 7 5 8 11 13 14 12 12 11 11 9 7 3 5 8 8 7 6 6 7 9 12 13 13 12 14 15 14 14 16 15 14 14 14 15 18 19 19 19 19 18 17 16 16 14 13 11 10 9 8 9 9 8 8 8 9 10 10 12 14 14 14 15 16 15 15 16 18 19 19 19 18 18 19 19 19 18 18 18 18
4 7 6 6 9 9 6 6 11 13 12 11 11 13 12 13 12 12 10 4 6 10 9 8 9 10 12 14 15 14 15 17 17 16 15 15 15 14 14 14 15 18 19 18 19 19 17 16 15 14 13 12 10 9 9 8 9 8 8 8 9 10 10 11 12 14 14 15 15 16 15 16 18 19 18 17 17 17 16 17 17 17 16 16 16 17
4 8 7 6 8 10 10 11 15 15 9 5 6 10 14 15 12 10 13 13 4 7 9 10 11 13 14 14 16 17 18 18 18 18 16 14 14 14 14 15 16 18 18 18 18 17 16 15 14 13 12 11 9 9 8 8 8 8 8 9 10 10 11 12 13 14 14 14 15 15 15 17 18 18 17 17 18 17 16 17 17 16 17 17 16 17
3 4 4 4 7 9 10 11 16 16 11 8 10 14 16 16 13 8 11 13 10 2 6 11 12 12 14 16 17 18 19 18 18 19 17 16 15 14 15 16 19 19 18 18 18 17 16 15 14 13 11 10 8 8 8 8 8 8 9 10 11 11 12 13 14 14 14 14 14 14 16 17 17 16 17 18 18 18 18 18 19 20 20 18 17 21
4 2 1 3 5 7 8 9 13 11 9 10 15 19 19 18 16 12 10 10 11 10 4 6 11 12 14 16 17 18 19 18 18 18 18 16 15 15 17 18 19 20 19 19 19 18 16 15 13 12 11 9 8 8 7 8 8 9 10 11 11 11 12 14 14 13 14 13 13 14 16 17 16 16 17 19 19 20 21 21 21 21 19 19 22 25
5 3 1 1 4 8 10 11 9 7 8 11 15 17 18 16 15 15 12 5 3 6 10 6 9 16 17 16 17 18 18 18 19 19 18 17 17 18 20 20 20 20 19 19 18 17 15 14 12 12 10 8 8 7 7 8 8 9 10 11 11 11 13 14 13 12 13 13 13 15 17 17 17 18 19 19 20 20 21 21 21 20 19 23 29 31
Wind_Direction
214 234 235 235 238 249 261 256 246 244 204 224 269 261 220 184 173 174 154 158 185 178 180 209 160 212 216 170 175 183 177 189 188 184 183 174 171 178 180 168 163 161 160 158 145 156 173 161 160 161 157 158 153 157 167 171 180 178 174 180 181 187 189 190 197 204 210 210 214 234 252 221 203 197 237 247 208 185 42 29 2 324 315 309 323 309
304 264 243 234 235 247 261 266 262 250 217 204 243 261 235 198 172 149 145 161 182 184 189 204 185 210 220 178 173 180 171 186 188 180 188 179 174 179 177 165 156 156 160 146 143 166 172 159 164 163 157 161 158 161 171 173 180 179 178 184 185 187 190 200 211 221 233 239 246 290 293 267 247 194 222 252 178 132 355 348 301 298 286 296 313 289
286 258 248 241 233 232 249 256 256 255 257 244 237 279 297 274 156 134 144 163 166 184 208 205 198 196 213 187 172 174 171 179 184 177 178 182 177 173 179 165 145 154 155 142 157 172 166 165 167 163 162 165 163 164 170 176 179 179 183 185 187 189 191 203 217 227 237 252 278 318 331 315 341 13 39 307 38 358 306 251 255 275 264 291 306 297
251 260 240 237 237 222 227 239 246 255 278 282 264 276 287 300 228 139 143 165 164 157 201 231 210 151 292 244 175 172 172 170 175 172 166 176 174 162 173 162 145 157 157 155 174 169 160 162 160 163 168 165 166 169 171 177 179 181 187 187 188 192 193 198 207 210 217 236 256 286 322 311 329 356 7 312 279 252 237 241 256 260 262 281 298 307
261 280 224 198 225 219 222 245 245 249 245 227 247 287 279 310 283 219 149 169 170 158 168 277 208 166 247 251 199 174 174 177 171 164 168 175 163 144 156 168 161 160 158 169 175 163 160 157 157 166 169 166 171 176 175 177 181 184 186 189 190 190 194 199 199 200 204 213 232 243 273 286 299 289 251 261 264 240 226 258 269 261 282 290 291 300
255 271 262 213 254 219 191 228 234 238 245 209 178 225 259 296 292 244 201 171 173 173 123 3 273 204 207 213 219 200 188 188 166 158 176 171 154 151 165 181 173 156 157 172 168 165 169 159 160 167 168 172 177 178 176 175 182 185 183 187 188 188 192 196 196 195 198 204 211 207 207 223 230 233 232 240 267 260 258 312 305 277 293 288 281 280
243 256 258 120 271 243 183 197 207 207 265 244 197 211 245 291 283 253 215 142 113 286 66 73 102 251 227 222 215 213 222 199 169 170 179 170 166 168 170 183 176 156 157 169 166 165 168 162 161 167 173 178 177 174 172 172 180 182 181 184 183 186 190 191 193 192 195 202 210 215 218 228 233 246 255 255 289 292 283 300 306 293 285 279 270 261
227 237 244 195 230 236 202 207 186 165 205 248 225 208 198 221 232 245 238 133 97 293 105 98 277 267 252 234 200 204 239 218 184 179 173 172 188 173 160 184 180 162 161 166 168 162 159 163 163 168 178 180 175 171 168 171 178 177 179 182 180 184 188 189 192 190 196 203 212 224 233 248 256 263 273 276 279 270 255 268 280 286 284 282 276 271
207 204 214 221 215 206 236 213 167 176 212 251 232 202 178 200 221 186 111 82 70 279 237 188 211 247 244 224 186 193 221 217 191 190 181 171 178 170 165 185 180 162 162 163 163 157 153 162 164 170 180 179 172 169 169 172 174 175 177 179 181 184 187 188 189 190 201 207 214 225 229 242 251 254 262 270 267 249 235 251 260 265 276 293 299 290
198 170 179 201 205 203 255 205 161 182 219 239 233 216 168 146 190 89 102 74 60 285 250 208 194 226 242 205 198 191 202 209 182 190 200 169 168 181 175 175 166 155 164 161 155 154 158 165 165 170 178 176 170 171 173 172 172 174 175 178 181 184 187 189 191 195 203 209 217 224 228 236 244 247 249 256 264 250 237 247 251 246 252 273 281 279
156 172 187 197 202 211 242 216 176 182 225 238 227 250 157 105 81 311 103 93 78 277 249 221 199 199 225 212 233 199 181 202 185 180 197 177 175 185 169 157 161 164 167 158 150 152 160 164 162 168 175 171 169 172 173 172 174 176 175 179 183 186 190 189 190 197 201 208 216 222 229 236 242 250 246 237 250 256 244 237 238 237 236 252 266 272
173 225 221 188 187 213 227 214 179 174 222 236 136 81 326 109 139 207 106 118 168 237 226 193 171 166 263 220 233 205 172 185 187 171 180 177 173 173 163 162 166 165 161 152 148 147 147 153 158 167 171 168 169 174 175 176 179 180 177 179 182 185 191 190 192 199 201 208 215 220 229 234 239 253 259 246 242 255 260 248 231 222 231 253 265 265
190 231 216 161 169 221 225 209 171 174 204 203 113 113 223 153 172 181 161 193 197 250 216 158 143 162 229 181 193 186 162 166 167 153 165 163 151 158 165 163 158 160 158 147 140 135 135 147 161 168 169 168 173 179 180 180 183 184 179 179 184 186 190 192 195 201 204 210 215 220 227 232 236 247 262 269 264 260 270 276 261 241 243 255 260 260
214 219 204 174 168 209 214 185 185 200 200 157 119 148 234 187 189 199 209 202 188 257 208 146 145 197 195 142 152 151 135 129 129 133 145 129 120 146 162 155 153 155 146 131 128 134 144 156 164 171 171 171 179 184 186 185 187 188 179 179 187 186 189 195 197 203 207 211 216 220 225 229 233 237 245 259 270 268 261 260 263 260 255 259 262 263
237 220 207 196 169 193 201 170 178 194 174 142 146 189 252 223 122 201 239 189 198 226 173 135 144 234 176 119 115 118 120 128 122 115 116 110 120 162 160 147 147 137 129 130 136 144 152 158 161 171 175 175 182 189 191 189 189 190 179 179 190 188 188 194 196 203 207 210 216 218 223 228 230 235 238 240 250 258 257 252 254 254 249 252 258 260
240 229 202 202 184 194 201 175 176 171 134 300 145 207 255 207 153 190 191 185 205 205 158 135 152 166 130 107 111 122 129 140 131 114 120 131 147 167 144 135 138 134 142 147 144 149 156 157 159 167 175 180 185 191 195 192 190 190 181 181 192 191 189 193 196 202 206 209 214 216 219 225 227 230 236 238 239 245 249 251 251 253 251 247 247 251
241 254 211 209 201 199 197 176 175 159 157 205 160 205 242 216 218 238 177 178 200 207 185 168 144 142 140 120 124 138 139 143 137 128 143 145 138 140 116 123 142 149 158 154 147 155 156 156 162 166 173 184 188 191 197 196 191 189 185 185 191 193 191 193 196 200 204 207 211 216 217 220 225 227 232 236 238 243 246 244 245 250 256 254 248 249
234 269 261 231 210 200 196 186 187 184 185 199 179 176 257 243 234 229 182 208 200 195 183 148 121 116 143 137 139 145 145 151 146 139 146 137 132 150 133 138 167 165 162 158 153 153 146 151 164 161 169 190 193 190 195 197 192 188 188 189 191 194 195 193 196 198 202 205 207 214 217 218 224 227 231 235 237 243 245 242 244 244 247 253 254 256
232 253 266 245 219 198 196 201 205 186 181 211 228 182 251 260 245 203 216 254 219 202 148 133 139 136 179 149 150 155 156 159 153 146 147 141 145 168 158 166 182 155 145 163 154 144 138 148 164 161 174 198 190 185 194 195 193 190 190 194 193 196 199 195 196 197 198 203 205 211 218 218 224 228 230 235 236 240 246 247 249 247 244 247 249 253
223 249 276 241 216 205 193 200 224 189 175 199 220 210 198 189 261 275 218 220 253 261 129 131 142 169 209 188 164 156 154 162 158 149 152 152 156 169 162 170 173 137 130 177 158 150 148 150 167 170 184 201 175 172 196 194 194 194 189 197 199 197 203 200 198 200 197 201 203 206 215 214 219 227 228 233 235 236 244 249 252 254 253 251 247 249
200 202 256 233 204 207 207 195 220 214 185 194 213 217 197 160 171 254 238 218 237 293 103 126 123 157 168 172 159 145 148 165 161 152 160 160 155 163 154 150 153 132 136 198 166 155 147 145 168 174 184 199 167 168 198 190 188 195 188 201 207 199 205 205 201 202 200 203 204 203 208 211 214 223 226 230 234 236 241 246 250 256 259 259 254 251
200 184 221 248 215 215 220 203 215 225 212 205 207 221 214 170 156 205 246 230 202 233 179 122 107 170 121 119 128 132 147 169 161 154 163 159 150 152 141 134 135 128 134 213 176 149 140 143 178 181 179 199 179 177 196 184 181 195 192 202 211 203 208 211 204 204 203 205 208 205 208 212 214 219 222 227 232 235 241 245 249 254 256 258 258 255
210 205 212 238 239 235 231 217 221 228 232 228 212 224 233 188 167 194 244 291 307 284 196 116 118 154 100 96 111 139 161 165 153 150 157 156 147 139 133 135 137 131 137 176 173 149 141 142 181 190 176 198 200 187 192 183 180 194 196 201 210 204 207 214 207 202 201 203 207 210 211 213 216 219 221 225 230 233 239 244 248 253 254 254 255 254
214 226 219 233 240 237 235 234 232 224 230 240 219 214 226 202 199 196 159 328 305 279 234 135 142 149 111 110 126 142 148 143 143 157 159 147 136 133 136 140 142 134 134 146 155 149 140 141 177 205 186 202 211 189 187 187 185 196 197 201 215 206 200 212 213 197 194 200 204 208 212 215 218 220 221 226 230 233 237 240 243 246 249 252 253 253
205 219 214 230 238 227 224 235 236 217 216 245 241 225 218 202 208 188 140 150 262 265 272 163 131 138 121 133 148 133 128 131 137 150 138 120 117 133 139 138 142 125 110 129 165 141 134 158 193 215 198 209 218 191 181 181 188 208 206 198 217 215 193 202 216 197 189 197 201 205 212 216 220 223 225 228 231 235 237 240 243 244 247 249 250 251
204 224 207 216 233 230 222 227 234 218 207 225 239 243 235 217 219 201 156 183 208 243 265 189 133 149 129 147 162 141 138 145 135 130 130 124 130 143 133 126 124 106 106 155 168 117 123 202 214 217 210 212 225 207 182 173 184 226 223 195 205 225 195 192 208 203 191 195 201 207 212 217 222 226 230 232 234 237 238 239 242 244 245 247 249 251
198 238 223 223 232 235 236 233 229 224 222 218 219 232 239 232 232 221 186 201 199 223 252 148 140 158 158 179 175 148 151 150 135 163 170 133 130 137 121 115 116 114 153 168 118 102 156 247 251 262 268 222 260 245 187 175 193 221 221 196 189 219 219 189 191 202 203 203 208 213 216 220 225 229 233 237 239 239 240 241 242 243 245 246 249 251
203 230 225 228 237 241 244 246 239 228 235 238 227 224 227 228 229 220 201 208 206 217 247 139 141 155 188 225 192 154 164 155 140 187 184 129 129 137 124 131 139 145 173 156 124 141 170 1 347 3 23 15 326 307 274 183 208 212 211 201 182 194 231 201 182 196 214 217 222 227 229 229 229 233 238 242 244 245 244 244 244 244 246 246 247 249
237 227 221 226 236 242 243 248 247 238 238 250 251 240 229 225 225 220 208 208 208 203 156 140 156 171 189 217 194 158 169 169 156 182 168 134 143 146 139 160 165 155 164 159 145 146 135 107 6 27 34 13 318 306 330 295 241 217 208 209 185 184 202 185 173 194 223 230 232 236 241 243 239 240 243 244 245 248 248 250 250 249 248 249 249 249
263 237 226 229 236 241 243 246 248 247 248 250 255 253 240 230 227 222 214 211 211 209 189 173 184 205 196 188 173 157 167 174 164 171 164 151 157 154 154 173 172 157 159 153 141 140 154 160 134 85 59 3 296 296 335 309 274 33 26 257 210 170 163 155 167 203 234 249 250 246 249 254 252 250 252 249 246 247 249 250 252 252 252 252 251 251
289 243 225 235 241 242 246 249 245 244 248 247 246 244 239 234 231 228 223 214 206 212 215 195 179 203 193 132 138 156 170 174 173 175 173 164 159 158 165 175 170 160 154 143 140 154 167 148 124 120 139 115 357 21 7 336 348 48 27 326 17 73 139 158 186 215 244 265 267 265 266 263 255 252 257 258 254 254 255 252 250 253 254 255 256 256
311 270 237 246 253 250 251 251 246 243 246 246 240 235 232 229 228 229 229 221 210 214 224 212 196 202 184 143 148 162 172 187 191 178 173 172 164 163 174 177 170 164 153 146 152 169 164 140 134 150 154 144 155 138 88 329 343 70 51 25 46 48 39 20 335 275 278 281 275 274 279 277 270 267 270 268 262 264 266 261 256 256 254 256 259 258
309 294 264 253 258 260 254 252 253 253 251 246 237 237 243 242 233 230 228 221 219 220 218 220 216 187 121 146 177 165 165 214 222 180 170 180 167 163 180 184 171 164 157 152 159 166 155 141 142 151 151 154 163 142 114 75 77 85 67 54 57 49 26 9 319 283 286 297 293 290 297 300 297 297 298 293 290 289 287 281 277 272 266 265 267 264
295 293 282 273 275 272 263 261 262 256 248 251 251 250 252 247 237 234 236 229 221 216 209 218 221 162 116 139 215 167 170 219 236 188 168 172 165 163 179 184 166 158 155 151 149 145 137 136 143 148 150 138 116 104 97 81 76 83 78 72 75 64 357 316 298 292 332 333 322 317 315 308 302 299 296 293 291 288 283 281 281 281 277 272 269 269
282 284 279 275 273 275 271 263 255 249 250 255 258 258 259 260 254 246 245 246 236 221 213 214 212 173 140 158 196 202 204 211 216 198 174 164 161 155 158 167 151 139 131 117 111 114 118 129 139 140 139 126 113 110 112 111 109 112 118 129 122 115 162 324 7 43 34 354 336 336 333 326 321 315 306 302 299 295 291 286 285 289 291 285 277 276
245 254 278 290 283 281 270 247 237 250 258 243 230 244 257 264 266 264 257 255 248 230 219 218 207 178 166 182 189 198 240 216 203 192 151 129 127 136 142 145 126 112 102 98 99 105 116 126 131 130 130 129 126 125 126 134 148 149 144 146 138 111 79 49 32 30 30 11 350 348 347 340 335 332 329 329 326 323 322 322 321 319 313 304 296 291
230 223 231 269 270 274 275 265 254 248 250 237 212 223 273 288 272 288 293 277 266 247 226 224 217 190 177 184 180 169 211 232 218 108 123 140 159 150 128 114 106 103 103 106 107 107 112 118 123 126 126 124 122 121 118 118 119 107 93 86 77 62 50 41 26 15 15 7 352 348 344 336 332 332 334 335 333 331 331 330 327 323 317 310 302 294
230 228 200 187 231 269 288 285 267 245 241 233 197 176 272 306 274 272 276 271 272 268 249 230 221 195 164 157 161 167 190 203 175 100 143 159 158 132 114 109 108 109 110 111 112 112 111 112 112 109 105 96 89 88 89 91 96 89 70 54 49 48 41 30 17 6 3 357 349 343 338 336 338 342 345 343 337 332 330 327 325 325 324 319 309 298
230 233 216 217 233 249 268 272 267 259 245 222 203 189 196 229 245 258 263 246 222 242 259 246 220 189 158 157 163 166 185 194 164 132 122 124 118 111 112 114 114 115 116 119 122 119 115 112 109 103 97 89 82 77 73 71 73 73 66 54 46 44 38 23 8 359 353 350 346 338 335 341 348 350 347 338 329 328 331 333 332 329 325 320 313 306
250 232 197 236 231 220 240 262 269 277 275 231 206 199 194 203 222 237 244 248 217 213 236 235 202 168 153 152 154 165 191 206 169 150 130 112 112 114 118 122 121 121 123 124 122 119 117 116 114 109 104 98 92 87 79 72 68 65 59 52 44 35 28 19 5 353 348 348 342 336 338 345 347 343 334 323 324 334 338 334 329 323 320 318 315 313
327 343 259 245 235 218 229 243 254 276 284 268 235 219 189 178 208 229 219 237 325 300 115 97 97 125 134 135 147 180 189 159 140 144 131 118 120 124 127 130 131 130 128 128 127 125 122 120 116 112 108 102 95 90 84 79 75 68 57 48 42 29 17 12 3 354 352 349 340 337 344 345 337 328 321 319 328 338 333 325 320 316 316 316 315 316
356 345 267 250 242 227 229 246 254 256 285 333 314 279 202 175 205 226 179 116 78 49 42 38 79 109 119 133 165 188 146 123 126 130 125 122 127 133 135 134 133 130 128 130 130 124 117 114 110 104 98 94 89 85 83 79 73 68 58 46 34 21 13 10 5 1 356 345 339 344 345 336 326 322 321 325 336 339 329 321 315 310 310 310 309 310
338 296 267 264 257 240 233 239 243 246 345 348 332 299 220 192 199 177 124 122 128 116 103 264 144 111 122 142 135 117 122 123 123 125 127 129 132 132 130 125 122 123 125 126 123 117 114 112 106 98 91 88 84 81 79 76 69 62 55 45 31 20 16 13 8 2 352 342 342 346 339 329 327 328 327 330 338 337 327 318 314 311 309 308 305 305
326 326 309 334 346 272 234 232 272 332 346 346 338 307 270 282 266 146 148 148 141 137 149 176 139 121 133 136 120 119 124 124 124 129 133 131 127 124 121 118 120 126 128 124 118 113 111 108 101 95 89 84 81 80 77 76 71 59 47 41 33 22 17 14 9 359 348 343 344 341 333 328 330 333 333 336 335 329 321 319 321 321 321 320 317 312
12 23 335 296 309 303 280 289 334 342 339 345 342 315 309 319 317 219 182 163 146 143 149 144 132 131 131 127 129 133 133 130 131 134 131 123 121 123 125 127 128 126 123 118 112 107 106 104 99 95 90 84 80 78 77 77 73 57 39 34 36 25 15 11 5 354 345 342 340 336 330 330 333 337 337 336 332 326 324 326 327 326 327 328 325 321
28 22 354 302 312 315 296 306 351 354 349 345 324 301 317 341 339 320 277 168 143 139 150 156 152 147 139 138 140 138 132 130 130 128 124 123 127 130 129 127 121 117 115 113 109 107 107 105 101 96 93 89 83 79 77 77 71 58 38 28 31 23 11 5 359 349 341 337 336 334 334 337 343 343 338 334 333 331 331 331 328 328 330 330 329 331
26 26 11 331 325 323 307 337 359 353 348 342 308 298 333 3 2 349 330 286 162 150 159 161 155 150 145 144 141 134 131 132 130 129 131 132 133 131 125 120 116 114 115 115 115 115 113 109 105 100 96 91 81 73 68 64 62 57 41 27 23 16 5 0 354 344 337 337 337 339 343 347 347 342 336 334 334 331 328 327 324 323 324 323 324 325
5 16 3 326 322 317 302 323 344 339 334 335 302 311 343 0 7 355 319 302 273 166 162 149 145 151 149 144 140 135 136 139 137 137 138 136 132 128 125 123 121 119 121 122 122 120 115 109 106 102 98 93 84 74 66 58 51 46 38 26 16 9 3 358 351 342 338 340 341 346 351 349 342 337 334 332 330 326 323 324 325 324 325 328 336 344
331 352 342 326 326 313 303 332 352 347 340 336 326 328 337 341 344 331 304 313 330 310 160 140 142 152 148 143 141 139 141 143 141 139 138 134 132 131 128 126 124 122 122 117 110 107 105 104 104 101 99 97 92 84 76 63 47 36 32 23 10 7 5 357 348 344 342 343 346 353 355 346 336 334 334 331 329 329 329 330 335 338 340 347 358 1
275 263 354 4 328 297 299 336 349 339 323 320 326 330 329 326 327 320 312 332 349 339 340 127 143 147 143 143 145 144 145 144 140 138 135 133 133 131 127 126 123 120 115 109 104 103 103 103 105 105 103 101 97 89 79 65 47 31 24 16 8 9 6 355 349 348 346 345 349 353 348 338 332 334 334 333 334 336 335 334 335 336 341 349 352 348
247 241 204 212 259 267 285 305 316 314 300 302 315 323 321 319 321 317 314 336 31 334 314 281 174 147 141 147 148 145 144 141 139 137 133 131 130 127 126 125 122 119 117 113 111 110 109 108 108 103 98 94 89 84 77 65 48 29 18 11 9 11 6 355 350 348 345 344 347 345 340 335 334 337 337 338 340 338 335 333 332 333 337 342 343 341